DW9620 Weather Reports


time (UTC)temp
C
wind
direction
speed
KPH
gust
KPH
rain 1hr
cm
rain 24hr
cm
rain mn
cm
humidity
%
barometer
mb
20260505010004 20 208 8.0 16.1 0.00 0.00 0.00 56 1004.9
20260505005504 21 206 9.7 16.1 0.00 0.00 0.00 55 1004.9
20260505005005 21 194 8.0 16.1 0.00 0.00 0.00 55 1005.2
20260505004504 21 201 9.7 16.1 0.00 0.00 0.00 55 1005.2
20260505004004 21 206 9.7 14.5 0.00 0.00 0.00 54 1005.2
20260505003504 21 209 6.4 16.1 0.00 0.00 0.00 54 1005.4
20260505003004 21 205 11.3 19.3 0.00 0.00 0.00 53 1005.4
20260505002504 21 206 11.3 19.3 0.00 0.00 0.00 52 1005.3
20260505001003 22 225 9.7 22.5 0.00 0.00 0.00 49 1005.5
20260505000504 22 207 11.3 22.5 0.00 0.00 0.00 49 1005.5
20260505000004 22 229 9.7 25.7 0.00 0.00 0.00 48 1005.5
20260504235504 22 238 14.5 32.2 0.00 0.00 0.00 47 1005.5
20260504234003 23 235 16.1 41.8 0.00 0.00 0.00 46 1005.5
20260504233503 23 227 22.5 41.8 0.00 0.00 0.00 45 1005.5
20260504233003 23 228 20.9 35.4 0.00 0.00 0.00 46 1005.5
20260504232005 23 233 17.7 32.2 0.00 0.00 0.00 47 1005.6
20260504231504 23 230 19.3 32.2 0.00 0.00 0.00 47 1005.6
20260504231004 23 219 22.5 32.2 0.00 0.00 0.00 49 1005.9
20260504230504 23 228 17.7 29.0 0.00 0.00 0.00 51 1005.9
20260504230005 23 218 19.3 29.0 0.00 0.00 0.00 51 1005.9
20260504225504 23 222 16.1 29.0 0.00 0.00 0.00 52 1005.9
20260504225004 23 205 14.5 29.0 0.00 0.00 0.00 52 1005.9
20260504224504 23 209 9.7 22.5 0.00 0.00 0.00 52 1005.9
20260504224004 23 234 12.9 22.5 0.00 0.00 0.00 54 1005.8
20260504223504 23 254 8.0 20.9 0.00 0.00 0.00 55 1005.9
20260504223005 23 204 11.3 20.9 0.00 0.00 0.00 54 1005.8
20260504222504 23 203 14.5 24.1 0.00 0.00 0.00 54 1005.8
20260504222005 23 211 11.3 24.1 0.00 0.00 0.00 54 1005.8
20260504221504 23 195 9.7 24.1 0.00 0.00 0.00 54 1006.2
20260504221004 23 225 8.0 19.3 0.00 0.00 0.00 53 1006.3
20260504220504 23 228 11.3 22.5 0.00 0.00 0.00 53 1006.4
20260504215504 23 237 12.9 22.5 0.00 0.00 0.00 53 1006.4
20260504214504 23 215 8.0 25.7 0.00 0.00 0.00 54 1006.6
20260504214004 23 234 9.7 25.7 0.00 0.00 0.00 52 1006.6
20260504213504 23 212 12.9 25.7 0.00 0.00 0.00 52 1006.5
20260504213004 23 247 14.5 19.3 0.00 0.00 0.00 52 1006.7
20260504212504 23 208 8.0 20.9 0.00 0.00 0.00 53 1006.7
20260504212004 23 265 12.9 24.1 0.00 0.00 0.00 50 1006.7
20260504211503 23 285 12.9 25.7 0.00 0.00 0.00 51 1006.8
20260504210504 23 285 9.7 27.4 0.00 0.00 0.00 50 1007.3
20260504210004 23 265 14.5 32.2 0.00 0.00 0.00 51 1007.3
20260504205504 23 256 20.9 32.2 0.00 0.00 0.00 50 1007.3
20260504205004 22 255 14.5 25.7 0.00 0.00 0.00 50 1007.3
20260504204504 22 284 19.3 27.4 0.00 0.00 0.00 50 1007.3
20260504204004 22 253 16.1 35.4 0.00 0.00 0.00 50 1007.3
20260504203504 23 240 16.1 35.4 0.00 0.00 0.00 52 1007.3
20260504202505 23 220 19.3 33.8 0.00 0.00 0.00 56 1007.3
20260504202004 22 267 17.7 25.7 0.00 0.00 0.00 53 1007.3
20260504201504 23 241 16.1 27.4 0.00 0.00 0.00 52 1007.3
20260504201004 22 234 19.3 27.4 0.00 0.00 0.00 54 1007.8
20260504200503 22 230 11.3 35.4 0.00 0.00 0.00 56 1007.8
20260504200004 22 262 19.3 35.4 0.00 0.00 0.00 54 1007.8
20260504195504 22 248 19.3 25.7 0.00 0.00 0.00 53 1007.8
20260504195004 22 245 12.9 24.1 0.00 0.00 0.00 57 1008.2
20260504194504 22 209 14.5 24.1 0.00 0.00 0.00 60 1008.2
20260504194004 21 231 11.3 19.3 0.00 0.00 0.00 58 1008.4
20260504193504 21 241 11.3 25.7 0.00 0.00 0.00 57 1008.4
20260504193004 21 257 12.9 25.7 0.00 0.00 0.00 59 1008.4
20260504192504 21 226 11.3 22.5 0.00 0.00 0.00 61 1008.4
20260504191504 20 248 9.7 19.3 0.00 0.00 0.00 62 1008.7
20260504191004 20 236 8.0 20.9 0.00 0.00 0.00 62 1008.8
20260504190504 20 235 9.7 29.0 0.00 0.00 0.00 61 1008.6
20260504190004 20 237 14.5 35.4 0.00 0.00 0.00 62 1008.6
20260504184504 20 240 20.9 35.4 0.00 0.00 0.00 59 1008.6
20260504183504 20 256 14.5 27.4 0.00 0.00 0.00 58 1008.3
20260504183004 20 261 17.7 38.6 0.00 0.00 0.00 58 1008.0
20260504182504 20 256 20.9 38.6 0.00 0.00 0.00 58 1008.0
20260504182004 20 235 20.9 37.0 0.00 0.00 0.00 57 1008.0
20260504181505 20 241 19.3 41.8 0.00 0.00 0.00 56 1008.0
20260504181004 21 220 19.3 41.8 0.00 0.00 0.00 57 1007.9
20260504180505 21 189 19.3 33.8 0.00 0.00 0.00 57 1007.9
20260504180004 21 211 22.5 41.8 0.00 0.00 0.00 58 1007.9
20260504175504 21 225 14.5 41.8 0.00 0.00 0.00 59 1008.0
20260504175004 20 214 20.9 41.8 0.00 0.00 0.00 60 1007.9
20260504174504 20 214 11.3 33.8 0.00 0.00 0.00 61 1007.9
20260504174004 20 241 11.3 24.1 0.00 0.00 0.00 63 1007.9
20260504173504 20 218 11.3 20.9 0.00 0.00 0.00 62 1007.5
20260504173004 20 200 11.3 20.9 0.00 0.00 0.00 61 1007.4
20260504172504 20 194 14.5 24.1 0.00 0.00 0.00 61 1007.7
20260504172004 20 203 12.9 27.4 0.00 0.00 0.00 61 1008.0
20260504171504 20 230 9.7 27.4 0.00 0.00 0.00 61 1008.1
20260504171004 19 237 11.3 27.4 0.00 0.00 0.00 62 1008.2
20260504170504 19 240 9.7 22.5 0.00 0.00 0.00 62 1008.1
20260504151004 17 213 11.3 29.0 0.00 0.00 0.00 65 1008.7
20260504150503 17 230 16.1 29.0 0.00 0.00 0.00 64 1008.6
20260504141004 15 202 16.1 29.0 0.00 0.00 0.00 68 1009.1
20260504140504 15 217 14.5 29.0 0.00 0.00 0.00 69 1009.1
20260504130504 13 208 12.9 24.1 0.00 0.00 0.00 69 1009.6
20260504110504 11 204 9.7 20.9 0.00 0.00 0.00 67 1009.5
20260504100504 10 213 6.4 11.3 0.00 0.00 0.00 65 1009.6
20260504082004 11 211 9.7 22.5 0.00 0.00 0.00 61 1010.3
20260504081504 11 213 9.7 20.9 0.00 0.00 0.00 61 1010.3
20260504081004 11 213 11.3 20.9 0.00 0.00 0.00 60 1010.4
20260504080504 11 201 11.3 20.9 0.00 0.00 0.00 61 1010.4
20260504050504 10 194 8.0 12.9 0.00 0.00 0.00 65 1011.9
20260504050004 10 196 4.8 12.9 0.00 0.00 0.00 64 1011.8
20260504045504 10 196 6.4 12.9 0.00 0.00 0.00 64 1011.8
20260504045004 10 191 8.0 12.9 0.00 0.00 0.00 64 1011.9
20260504044504 10 193 6.4 12.9 0.00 0.00 0.00 64 1012.0
20260504044003 10 193 6.4 12.9 0.00 0.00 0.00 63 1011.9
20260504043004 10 178 8.0 14.5 0.00 0.00 0.00 63 1012.1
20260504042504 10 169 6.4 14.5 0.00 0.00 0.00 62 1012.2
20260504042005 10 171 8.0 16.1 0.00 0.00 0.00 62 1012.4
20260504041504 10 184 11.3 16.1 0.00 0.00 0.00 62 1012.3
20260504041004 10 187 8.0 19.3 0.00 0.00 0.00 61 1012.5
20260504040504 11 182 8.0 19.3 0.00 0.00 0.00 61 1012.5
20260504040004 11 186 8.0 19.3 0.00 0.00 0.00 61 1012.5
20260504034504 11 189 8.0 14.5 0.00 0.00 0.00 60 1012.6
20260504034004 11 189 8.0 14.5 0.00 0.00 0.00 60 1012.6
20260504033504 11 179 8.0 14.5 0.00 0.00 0.00 59 1012.6
20260504033004 11 183 8.0 14.5 0.00 0.00 0.00 59 1012.7
20260504032505 11 179 8.0 14.5 0.00 0.00 0.00 58 1012.7
20260504032004 11 184 6.4 11.3 0.00 0.00 0.00 58 1012.7
20260504031504 12 190 8.0 11.3 0.00 0.00 0.00 57 1012.8
20260504030504 12 171 4.8 9.7 0.00 0.00 0.00 56 1012.9
20260504030004 12 169 4.8 9.7 0.00 0.00 0.00 56 1012.9
20260504025504 12 167 4.8 9.7 0.00 0.00 0.00 55 1013.0
20260504025004 12 173 8.0 11.3 0.00 0.00 0.00 54 1012.9
20260504023004 13 326 3.2 11.3 0.00 0.00 0.00 53 1012.8
20260504022004 13 288 4.8 11.3 0.00 0.00 0.00 52 1012.8
20260504021504 13 326 6.4 20.9 0.00 0.00 0.00 51 1012.8
20260504021004 13 329 8.0 20.9 0.00 0.00 0.00 50 1012.8
20260504020504 13 310 11.3 19.3 0.00 0.00 0.00 49 1012.8
20260504020004 13 311 9.7 19.3 0.00 0.00 0.00 49 1012.6
20260504015505 13 302 12.9 25.7 0.00 0.00 0.00 49 1012.6
20260504015004 13 268 9.7 25.7 0.00 0.00 0.00 48 1012.5
20260504014504 13 228 3.2 14.5 0.00 0.00 0.00 49 1012.4
20260504014004 13 227 4.8 14.5 0.00 0.00 0.00 48 1012.5
20260504013504 13 202 8.0 12.9 0.00 0.00 0.00 48 1012.4
20260504012504 13 189 8.0 19.3 0.00 0.00 0.00 47 1012.5
20260504011504 13 290 11.3 16.1 0.00 0.00 0.00 47 1012.7
20260504011005 13 264 4.8 14.5 0.00 0.00 0.00 47 1012.7